THOR ABLESTAR DEB, 351

Orbit data source: Space-Track

THOR ABLESTAR DEB, 351 is space debris in LEO originally from a launch on Thu, 29 Jun 1961 UTC launched from the Air Force Eastern Test Range (AFETR). Debris objects in space refer to the collection of defunct objects orbiting the Earth. Examples of debris include non-operational satellites, rocket bodies, and fragments generated from explosions, collisions, or faulty payload assembly.

Loading next visibility...
Identifier
351, 1961-015DR
Orbit
LEO
Country
Flag of USUS
Related business
Manufacturer
Unknown
Mission
Spacecraft
Bus & Motor
Unknown
Mass
Unknown
Launch date (UTC)
1961-06-29 (65 years ago)
Launch vehicle
Unknown
Launch site
Air Force Eastern Test Range (AFETR)
Object type
Payload
Rocket body
Debris
Shape & HBR
Unknown shape, 0.1 m
Radar Cross Section
Medium (>0.1 m² and <1 m²)

Expand to show TLE details & history
Last TLE update: 17 hours ago

TLE from 17 hours ago
0 THOR ABLESTAR DEB
1   351U 61015DR  26198.43629065  .00004234  00000-0  48139-3 0  9994
2   351  66.7409 359.2649 0030040 281.1441  78.6310 14.87007453382231
Epoch: 2026-07-17T10:28Z
TLE epoch observation values (Epoch: 2026-07-17T10:28:15.512Z)
Latitude
0.00005°
Longitude
-93.06313°
Altitude
605.381 km
Speed
7.559 km/s
True Right ascension
23h 57m 03s
True Declination
0° 00' 00"
Sunlit
Object was in full shadow at epoch
Visualization orbit readout
Latitude
Unknown
Longitude
Unknown
Altitude
Unknown
Speed
Unknown
Apparent Right ascension
Unknown
Apparent Declination
Unknown
Sunlit
N/A
Visualization observer readout
Local Sidereal Time
16:09:47
Azimuth
Unknown
Elevation
Unknown
Doppler factor
Unknown
Orbital elements
Apogee altitude
626.598 km
Perigee altitude
584.64 km
Semi-major axis
6,983.756 km
Eccentricity
0.003
Inclination
66.7409°
RAAN
359.2649°
Arg. of periapsis
281.1441°
True anomaly
78.96873°
Mean anomaly
78.631°
Eccentric anomaly
78.79984°
Mean motion
3.71886 °/min
Orbital period
96.8 mins
BSTAR
0.00048139
Loading maneuver chart data...
Computing Atmospheric mass density...

Documentation

Showing up to 5 results
|